| time (UTC) | temp C | wind direction | speed KPH | gust KPH | rain 1hr cm | rain 24hr cm | rain mn cm | humidity % | barometer mb |
| 20260510104022 | 10 | 45 | 6.4 | 8.0 | 0.00 | 0.00 | 0.00 | 74 | 1018.0 |
| 20260510103021 | 9 | 158 | 3.2 | 6.4 | 0.00 | 0.00 | 0.00 | 74 | 1017.9 |
| 20260510102022 | 9 | 113 | 3.2 | 4.8 | 0.00 | 0.00 | 0.00 | 75 | 1017.8 |
| 20260510101022 | 8 | 90 | 4.8 | 6.4 | 0.00 | 0.00 | 0.00 | 75 | 1017.8 |
| 20260510100021 | 8 | 68 | 4.8 | 6.4 | 0.00 | 0.00 | 0.00 | 74 | 1017.7 |
| 20260510095022 | 8 | 360 | 4.8 | 8.0 | 0.00 | 0.00 | 0.00 | 73 | 1017.7 |
| 20260510094022 | 8 | 158 | 4.8 | 6.4 | 0.00 | 0.00 | 0.00 | 75 | 1017.5 |
| 20260510093021 | 8 | 68 | 8.0 | 9.7 | 0.00 | 0.00 | 0.00 | 75 | 1017.5 |
| 20260510092024 | 8 | 68 | 6.4 | 8.0 | 0.00 | 0.00 | 0.00 | 76 | 1017.4 |
| 20260510091021 | 8 | 45 | 4.8 | 4.8 | 0.00 | 0.00 | 0.00 | 75 | 1017.3 |
| 20260510090022 | 8 | 90 | 3.2 | 4.8 | 0.00 | 0.00 | 0.00 | 74 | 1017.3 |
| 20260510085022 | 8 | 68 | 3.2 | 4.8 | 0.00 | 0.00 | 0.00 | 72 | 1017.2 |
| 20260510084021 | 8 | 68 | 1.6 | 3.2 | 0.00 | 0.00 | 0.00 | 72 | 1017.2 |
| 20260510083022 | 8 | 23 | 1.6 | 3.2 | 0.00 | 0.00 | 0.00 | 74 | 1017.2 |
| 20260510082021 | 8 | 23 | 8.0 | 9.7 | 0.00 | 0.00 | 0.00 | 74 | 1017.2 |
| 20260510081022 | 8 | 68 | 4.8 | 6.4 | 0.00 | 0.00 | 0.00 | 74 | 1017.2 |
| 20260510080022 | 8 | 113 | 4.8 | 8.0 | 0.00 | 0.00 | 0.00 | 73 | 1017.1 |
| 20260510075021 | 8 | 68 | 3.2 | 6.4 | 0.00 | 0.00 | 0.00 | 72 | 1017.0 |
| 20260510074024 | 8 | 315 | 3.2 | 3.2 | 0.00 | 0.00 | 0.00 | 72 | 1017.0 |
| 20260510073021 | 8 | 90 | 4.8 | 6.4 | 0.00 | 0.00 | 0.00 | 72 | 1016.9 |
| 20260510072022 | 8 | 248 | 3.2 | 4.8 | 0.00 | 0.00 | 0.00 | 72 | 1017.1 |
| 20260510071022 | 8 | 135 | 3.2 | 4.8 | 0.00 | 0.00 | 0.00 | 73 | 1016.9 |
| 20260510070024 | 8 | 68 | 6.4 | 8.0 | 0.00 | 0.00 | 0.00 | 75 | 1016.7 |
| 20260510065022 | 8 | 158 | 6.4 | 8.0 | 0.00 | 0.00 | 0.00 | 77 | 1016.7 |
| 20260510064021 | 8 | 135 | 3.2 | 6.4 | 0.00 | 0.00 | 0.00 | 78 | 1016.7 |
| 20260510063024 | 8 | 135 | 4.8 | 8.0 | 0.00 | 0.00 | 0.00 | 76 | 1016.7 |
| 20260510062022 | 8 | 180 | 11.3 | 17.7 | 0.00 | 0.00 | 0.00 | 77 | 1016.9 |
| 20260510061022 | 8 | 203 | 11.3 | 16.1 | 0.00 | 0.00 | 0.00 | 75 | 1016.8 |
| 20260510060024 | 9 | 158 | 6.4 | 11.3 | 0.00 | 0.00 | 0.00 | 75 | 1016.6 |
| 20260510055022 | 8 | 180 | 4.8 | 11.3 | 0.00 | 0.00 | 0.00 | 78 | 1016.3 |
| 20260510054021 | 8 | 135 | 3.2 | 3.2 | 0.00 | 0.00 | 0.00 | 78 | 1016.5 |
| 20260510053024 | 8 | 68 | 3.2 | 4.8 | 0.00 | 0.00 | 0.00 | 77 | 1016.6 |
| 20260510052025 | 9 | 90 | 6.4 | 8.0 | 0.00 | 0.00 | 0.00 | 76 | 1016.7 |
| 20260510051022 | 9 | 135 | 4.8 | 8.0 | 0.00 | 0.00 | 0.00 | 76 | 1016.7 |
| 20260510050022 | 9 | 23 | 4.8 | 6.4 | 0.00 | 0.00 | 0.00 | 76 | 1016.9 |
| 20260510045021 | 9 | 23 | 4.8 | 6.4 | 0.00 | 0.00 | 0.00 | 76 | 1016.8 |
| 20260510044024 | 9 | 68 | 8.0 | 12.9 | 0.00 | 0.00 | 0.00 | 75 | 1016.7 |
| 20260510043021 | 9 | 113 | 3.2 | 4.8 | 0.00 | 0.00 | 0.00 | 74 | 1016.9 |
| 20260510042022 | 9 | 90 | 4.8 | 8.0 | 0.00 | 0.00 | 0.00 | 74 | 1017.0 |
| 20260510041022 | 9 | 203 | 9.7 | 14.5 | 0.00 | 0.00 | 0.00 | 73 | 1017.1 |
| 20260510040021 | 9 | 135 | 8.0 | 9.7 | 0.00 | 0.00 | 0.00 | 73 | 1017.0 |
| 20260510035026 | 10 | 135 | 4.8 | 8.0 | 0.00 | 0.00 | 0.00 | 71 | 1017.1 |
| 20260510034023 | 10 | 225 | 6.4 | 11.3 | 0.00 | 0.00 | 0.00 | 70 | 1017.3 |
| 20260510033026 | 10 | 270 | 8.0 | 16.1 | 0.00 | 0.00 | 0.00 | 69 | 1017.4 |
| 20260510032022 | 10 | 180 | 6.4 | 11.3 | 0.00 | 0.00 | 0.00 | 68 | 1017.3 |
| 20260510031021 | 10 | 135 | 9.7 | 16.1 | 0.00 | 0.00 | 0.00 | 67 | 1017.3 |
| 20260510030022 | 10 | 135 | 4.8 | 8.0 | 0.00 | 0.00 | 0.00 | 67 | 1017.3 |
| 20260510025021 | 10 | 180 | 6.4 | 8.0 | 0.00 | 0.00 | 0.00 | 67 | 1017.1 |
| 20260510024022 | 10 | 180 | 4.8 | 4.8 | 0.00 | 0.00 | 0.00 | 66 | 1017.2 |
| 20260510023023 | 10 | 135 | 4.8 | 4.8 | 0.00 | 0.00 | 0.00 | 66 | 1016.9 |
| 20260510022022 | 10 | 180 | 6.4 | 8.0 | 0.00 | 0.00 | 0.00 | 65 | 1017.0 |
| 20260510021023 | 10 | 180 | 4.8 | 6.4 | 0.00 | 0.00 | 0.00 | 65 | 1017.0 |
| 20260510020022 | 10 | 68 | 3.2 | 3.2 | 0.00 | 0.00 | 0.00 | 65 | 1016.7 |
| 20260510015022 | 10 | 135 | 1.6 | 3.2 | 0.00 | 0.00 | 0.00 | 64 | 1016.6 |
| 20260510014022 | 10 | 113 | 1.6 | 3.2 | 0.00 | 0.00 | 0.00 | 62 | 1016.3 |
| 20260510013022 | 10 | 203 | 8.0 | 11.3 | 0.00 | 0.00 | 0.00 | 61 | 1016.2 |
| 20260510012021 | 11 | 68 | 4.8 | 8.0 | 0.00 | 0.00 | 0.00 | 60 | 1016.1 |
| 20260510011021 | 11 | 203 | 1.6 | 4.8 | 0.00 | 0.00 | 0.00 | 59 | 1015.9 |
| 20260510010022 | 11 | 180 | 8.0 | 9.7 | 0.00 | 0.00 | 0.00 | 57 | 1016.1 |
| 20260510005022 | 11 | 203 | 8.0 | 9.7 | 0.00 | 0.00 | 0.00 | 56 | 1015.9 |
| 20260510004022 | 11 | 135 | 0.0 | 1.6 | 0.00 | 0.00 | 0.00 | 55 | 1015.7 |
| 20260510003022 | 11 | 158 | 1.6 | 3.2 | 0.00 | 0.00 | 0.00 | 55 | 1015.6 |
| 20260510002023 | 11 | 203 | 4.8 | 6.4 | 0.00 | 0.00 | 0.00 | 53 | 1015.5 |
| 20260510001022 | 12 | 180 | 0.0 | 1.6 | 0.00 | 0.00 | 0.00 | 52 | 1015.2 |
| 20260510000022 | 12 | 180 | 1.6 | 3.2 | 0.00 | 0.00 | 0.00 | 50 | 1015.2 |
| 20260509235022 | 12 | 90 | 3.2 | 4.8 | 0.00 | 0.00 | 0.00 | 49 | 1015.1 |
| 20260509234022 | 12 | 360 | 3.2 | 4.8 | 0.00 | 0.00 | 0.00 | 49 | 1015.1 |
| 20260509233024 | 13 | 90 | 4.8 | 8.0 | 0.00 | 0.00 | 0.00 | 49 | 1015.0 |
| 20260509232021 | 13 | 135 | 8.0 | 11.3 | 0.00 | 0.00 | 0.00 | 50 | 1015.0 |
| 20260509231022 | 13 | 68 | 4.8 | 6.4 | 0.00 | 0.00 | 0.00 | 51 | 1015.0 |
| 20260509230021 | 13 | 270 | 3.2 | 8.0 | 0.00 | 0.00 | 0.00 | 51 | 1015.0 |
| 20260509225022 | 14 | 158 | 6.4 | 11.3 | 0.00 | 0.00 | 0.00 | 50 | 1015.0 |
| 20260509224022 | 15 | 203 | 6.4 | 9.7 | 0.00 | 0.00 | 0.00 | 47 | 1014.9 |
| 20260509223022 | 15 | 180 | 12.9 | 20.9 | 0.00 | 0.00 | 0.00 | 48 | 1014.9 |
| 20260509222021 | 14 | 158 | 4.8 | 6.4 | 0.00 | 0.00 | 0.00 | 51 | 1015.1 |
| 20260509221022 | 15 | 180 | 9.7 | 16.1 | 0.00 | 0.00 | 0.00 | 50 | 1015.1 |
| 20260509220021 | 14 | 248 | 9.7 | 11.3 | 0.00 | 0.00 | 0.00 | 51 | 1014.9 |
| 20260509215022 | 14 | 90 | 3.2 | 4.8 | 0.00 | 0.00 | 0.00 | 52 | 1014.8 |
| 20260509214022 | 14 | 135 | 11.3 | 14.5 | 0.00 | 0.00 | 0.00 | 51 | 1014.9 |
| 20260509213021 | 15 | 158 | 8.0 | 9.7 | 0.00 | 0.00 | 0.00 | 51 | 1014.7 |
| 20260509212022 | 15 | 90 | 4.8 | 6.4 | 0.00 | 0.00 | 0.00 | 51 | 1014.7 |
| 20260509211023 | 15 | 203 | 4.8 | 8.0 | 0.00 | 0.00 | 0.00 | 49 | 1014.6 |
| 20260509210022 | 15 | 158 | 11.3 | 12.9 | 0.00 | 0.00 | 0.00 | 51 | 1014.5 |
| 20260509205024 | 14 | 158 | 6.4 | 8.0 | 0.00 | 0.00 | 0.00 | 53 | 1014.6 |
| 20260509204022 | 14 | 158 | 11.3 | 14.5 | 0.00 | 0.00 | 0.00 | 51 | 1014.6 |
| 20260509203022 | 15 | 158 | 12.9 | 16.1 | 0.00 | 0.00 | 0.00 | 49 | 1014.4 |
| 20260509202021 | 15 | 203 | 14.5 | 16.1 | 0.00 | 0.00 | 0.00 | 48 | 1014.3 |
| 20260509201022 | 15 | 225 | 12.9 | 16.1 | 0.00 | 0.00 | 0.00 | 46 | 1014.1 |
| 20260509200022 | 16 | 203 | 6.4 | 8.0 | 0.00 | 0.00 | 0.00 | 46 | 1014.3 |
| 20260509195022 | 16 | 225 | 4.8 | 8.0 | 0.00 | 0.00 | 0.00 | 45 | 1014.2 |
| 20260509194022 | 15 | 203 | 4.8 | 4.8 | 0.00 | 0.00 | 0.00 | 50 | 1014.3 |
| 20260509193022 | 14 | 270 | 4.8 | 8.0 | 0.00 | 0.00 | 0.00 | 50 | 1014.4 |
| 20260509192024 | 15 | 225 | 4.8 | 6.4 | 0.00 | 0.00 | 0.00 | 49 | 1014.5 |
| 20260509191022 | 15 | 158 | 6.4 | 11.3 | 0.00 | 0.00 | 0.00 | 48 | 1014.7 |
| 20260509190021 | 13 | 203 | 11.3 | 16.1 | 0.00 | 0.00 | 0.00 | 51 | 1014.7 |
| 20260509185021 | 13 | 68 | 8.0 | 9.7 | 0.00 | 0.00 | 0.00 | 52 | 1014.7 |
| 20260509184022 | 14 | 225 | 1.6 | 3.2 | 0.00 | 0.00 | 0.00 | 52 | 1014.7 |
| 20260509183023 | 14 | 203 | 8.0 | 11.3 | 0.00 | 0.00 | 0.00 | 52 | 1014.7 |
| 20260509182022 | 13 | 203 | 8.0 | 8.0 | 0.00 | 0.00 | 0.00 | 53 | 1014.9 |
| 20260509181021 | 14 | 270 | 6.4 | 8.0 | 0.00 | 0.00 | 0.00 | 51 | 1014.9 |
| 20260509180022 | 14 | 360 | 4.8 | 6.4 | 0.00 | 0.00 | 0.00 | 52 | 1014.8 |
| 20260509175022 | 14 | 203 | 6.4 | 11.3 | 0.00 | 0.00 | 0.00 | 52 | 1014.9 |
| 20260509174022 | 13 | 225 | 11.3 | 16.1 | 0.00 | 0.00 | 0.00 | 54 | 1015.0 |
| 20260509173022 | 13 | 225 | 11.3 | 14.5 | 0.00 | 0.00 | 0.00 | 54 | 1015.1 |
| 20260509172022 | 13 | 248 | 16.1 | 19.3 | 0.00 | 0.00 | 0.00 | 52 | 1015.2 |
| 20260509171022 | 13 | 135 | 6.4 | 9.7 | 0.00 | 0.00 | 0.00 | 53 | 1015.3 |
| 20260509170021 | 14 | 113 | 4.8 | 8.0 | 0.00 | 0.00 | 0.00 | 51 | 1015.4 |
| 20260509165022 | 13 | 225 | 9.7 | 14.5 | 0.00 | 0.00 | 0.00 | 55 | 1015.3 |
| 20260509164021 | 13 | 203 | 9.7 | 11.3 | 0.00 | 0.00 | 0.00 | 55 | 1015.1 |
| 20260509163024 | 12 | 203 | 3.2 | 4.8 | 0.00 | 0.00 | 0.00 | 60 | 1015.2 |
| 20260509162022 | 12 | 180 | 3.2 | 4.8 | 0.00 | 0.00 | 0.00 | 59 | 1015.3 |
| 20260509161024 | 12 | 248 | 8.0 | 11.3 | 0.00 | 0.00 | 0.00 | 57 | 1015.2 |
| 20260509160021 | 12 | 248 | 3.2 | 4.8 | 0.00 | 0.00 | 0.00 | 63 | 1015.1 |
| 20260509155022 | 13 | 203 | 8.0 | 11.3 | 0.00 | 0.00 | 0.00 | 60 | 1015.0 |
| 20260509154022 | 13 | 158 | 1.6 | 3.2 | 0.00 | 0.00 | 0.00 | 60 | 1015.1 |
| 20260509153022 | 13 | 113 | 3.2 | 4.8 | 0.00 | 0.00 | 0.00 | 58 | 1015.0 |
| 20260509152021 | 13 | 248 | 4.8 | 6.4 | 0.00 | 0.00 | 0.00 | 60 | 1015.1 |
| 20260509151022 | 12 | 225 | 9.7 | 14.5 | 0.00 | 0.00 | 0.00 | 61 | 1015.1 |
| 20260509150024 | 13 | 225 | 1.6 | 3.2 | 0.00 | 0.00 | 0.00 | 61 | 1015.3 |
| 20260509145022 | 13 | 248 | 6.4 | 8.0 | 0.00 | 0.00 | 0.00 | 62 | 1015.1 |
| 20260509144022 | 12 | 90 | 3.2 | 4.8 | 0.00 | 0.00 | 0.00 | 60 | 1015.1 |
| 20260509143022 | 12 | 203 | 6.4 | 8.0 | 0.00 | 0.00 | 0.00 | 61 | 1014.9 |
| 20260509142022 | 12 | 270 | 11.3 | 12.9 | 0.00 | 0.00 | 0.00 | 59 | 1014.9 |
| 20260509141021 | 12 | 203 | 4.8 | 8.0 | 0.00 | 0.00 | 0.00 | 63 | 1014.7 |
| 20260509140022 | 12 | 225 | 11.3 | 14.5 | 0.00 | 0.00 | 0.00 | 62 | 1014.7 |
| 20260509135021 | 11 | 270 | 6.4 | 9.7 | 0.00 | 0.00 | 0.00 | 68 | 1014.8 |
| 20260509134022 | 10 | 158 | 6.4 | 8.0 | 0.00 | 0.00 | 0.00 | 71 | 1015.1 |
| 20260509133024 | 9 | 270 | 4.8 | 8.0 | 0.00 | 0.00 | 0.00 | 77 | 1015.2 |
| 20260509132022 | 8 | 225 | 11.3 | 16.1 | 0.00 | 0.00 | 0.00 | 78 | 1015.3 |
| 20260509131022 | 8 | 225 | 20.9 | 24.1 | 0.00 | 0.00 | 0.00 | 79 | 1015.4 |
| 20260509130021 | 8 | 203 | 11.3 | 16.1 | 0.00 | 0.00 | 0.00 | 80 | 1015.5 |
| 20260509125022 | 8 | 203 | 16.1 | 20.9 | 0.00 | 0.00 | 0.00 | 80 | 1015.5 |
| 20260509124022 | 8 | 225 | 22.5 | 29.0 | 0.00 | 0.00 | 0.00 | 81 | 1015.6 |
| 20260509123022 | 8 | 158 | 16.1 | 24.1 | 0.00 | 0.00 | 0.00 | 80 | 1015.5 |
| 20260509122021 | 8 | 225 | 16.1 | 20.9 | 0.00 | 0.00 | 0.00 | 80 | 1015.5 |
| 20260509121022 | 8 | 225 | 11.3 | 16.1 | 0.00 | 0.00 | 0.00 | 80 | 1015.5 |
| 20260509120022 | 8 | 225 | 11.3 | 11.3 | 0.00 | 0.00 | 0.00 | 80 | 1015.6 |
| 20260509115024 | 8 | 225 | 8.0 | 9.7 | 0.00 | 0.00 | 0.00 | 80 | 1015.5 |
| 20260509114022 | 8 | 248 | 9.7 | 11.3 | 0.00 | 0.00 | 0.00 | 80 | 1015.5 |
| 20260509113022 | 8 | 225 | 11.3 | 16.1 | 0.00 | 0.00 | 0.00 | 80 | 1015.3 |
| 20260509112022 | 8 | 203 | 12.9 | 16.1 | 0.00 | 0.00 | 0.00 | 81 | 1015.3 |
| 20260509111022 | 8 | 203 | 12.9 | 17.7 | 0.00 | 0.00 | 0.00 | 80 | 1015.3 |
| 20260509110021 | 8 | 225 | 14.5 | 16.1 | 0.00 | 0.00 | 0.00 | 80 | 1015.3 |
| 20260509105022 | 8 | 248 | 14.5 | 17.7 | 0.00 | 0.00 | 0.00 | 80 | 1015.3 |